"Pseudo-MPEC" for C15LW42

Created 2019 Oct 17 0:07:05 UT using Find_Orb

Click here for an explanation of pseudo-MPECs

 
 Astrometry: 
     C15LW42  C2019 10 10.34162 04 38 03.83 +38 34 24.9    ~AA97 19.3 GVNEOCPG96
     C15LW42  C2019 10 10.34640 04 38 04.00 +38 34 33.2    ~AA97 19.3 GVNEOCPG96
     C15LW42  C2019 10 10.35118 04 38 04.15 +38 34 41.5    ~AA97 19.3 GVNEOCPG96
     C15LW42  C2019 10 10.35596 04 38 04.32 +38 34 49.7    ~AA97 19.4 GVNEOCPG96
     C15LW42  C2019 10 10.45803 04 38 07.70 +38 37 45.2    ~AABq 19.4 GVNEOCPI52
     C15LW42  C2019 10 10.46100 04 38 07.78 +38 37 50.5    ~AABq 19.4 GVNEOCPI52
     C15LW42  C2019 10 10.47659 04 38 08.29 +38 38 17.1    ~AABq 19.4 GVNEOCPI52
     C15LW42  C2019 10 10.47996 04 38 08.40 +38 38 23.0    ~AABq 19.2 GVNEOCPI52
     C15LW42  C2019 10 11.29880 04 38 37.80 +39 01 49.3    ~AB7q 19.5 GVNEOCPI52
     C15LW42  C2019 10 11.30041 04 38 37.78 +39 01 51.1    ~AB7q 19.7 GVNEOCPI52
     C15LW42  C2019 10 11.30439 04 38 37.85 +39 01 58.7    ~AB7q 20.1 GVNEOCPI52
     C15LW42  C2019 10 11.30721 04 38 38.02 +39 02 03.3    ~AB7q 19.9 GVNEOCPI52
     C15LW42 KC2019 10 11'JhLCC,j%gF2w.N%cGJe4pArwraue(W5K]XnCHs0oivFxJKaqu+F595
     C15LW42 IC2019 10 11GWC?r*)tKfR?/U8s$(oJZ?vujK!OKI,nB$A'%$!*E-JTb(@xQkXK595
     C15LW42 IC2019 10 12AS;FUkrXQ@TV;55@6?eDCs``![^-LqXGJMGYrskJ:ZU5IOLB:Jf4L01
     C15LW42 IC2019 10 12diEPK5bL:6tMbm?fa?q.#FZF;^f)#FrHd#NTenUNAv:^73_.Bb/VL01
     C15LW42 KC2019 10 12bJo(SrN%@m(HGnI;#Q6uM+ZesM:5\qx,f_^/eXG'Io*s[.nc9(N2L01
     C15LW42 KC2019 10 12!!Lk^wij=I*UXIhZpo]fS!940aw#j%5E[6?mYc1]G@;p.PAWga0iL01
     C15LW42 KC2019 10 12ySav0+V+7u0c/MNluoaE#7f5YMEH'DUiueN+?3B5/Ry%MdTBK=fiL01
     C15LW42 KC2019 10 12vn4xu3SbrGmlZ5'CA;T%UPQ/*nusjCbB?uO]]!**m?sub:!$n/)IK87
     C15LW42 KC2019 10 12:ZXDAstrometry(.rLQZnJ/wbFylPleIgN=C,1,55FJGE,UqYaQ'K87
     C15LW42 KC2019 10 12e:%M`$tjJ_ml305sAu/VB3XA?g8RNCZn]9Awq;gA!ZghDVbeRKvNK87
     C15LW42 KC2019 10 16^.redacted;oWua0J*DclickrA]9r.U_)0sqR=Mn\Y?2-W@V5p=EL01
     C15LW42 KC2019 10 16@!ilv+n4:-=JZhereh#Qqhuk]Hu97k1\ef%Wc+1sW?7'y%^Qu0?KL01
     C15LW42 KC2019 10 16!s.#H!;m2Q2yWi,M6=forl'DF`]Q6mJaHwI%J@m]r6)I,E/Y5LKWL01
     C15LW42 KC2019 10 16.Wm![.#XW(X'explanation#u,.X/:W?tmEcpt$7gYru\*,?=4BCL01
     C15LW42 KC2019 10 16,q);O8U`1)-W]K'=E,Tg?VeIu(7qKCh.8qFnW2w?C5jJR50-VPgsL01

Station data:
(595) Farra d'Isonzo  (N45.915734 E13.525780)  Italy.  Observers L.
   Bittesini, F. Fabris, E. Pettarin, F. Piani. Measurer E. Pettarin. 0.30-m
   f/4.5 reflector + CCD.
(G96) Mt. Lemmon Survey  (N32.442754 W110.788720)  US/Arizona.  Observers T.
   A. Pruyne, B. M. Africano, E. J. Christensen, G. A. Farneth, D. C. Fuls,
   A. R. Gibbs, A. D. Grauer, H. Groeller, J. A. Johnson, R. A. Kowalski, S.
   M. Larson, G. J. Leonard, D. Rankin, R. L. Seaman, F. C. Shelly. 1.5-m
   reflector + 10K CCD.
(I52) Steward Observatory, Mt. Lemmon Station  (N32.442547 W110.788920)
   US/Arizona.  Observers T. A. Pruyne, B. M. Africano, E. J. Christensen, G.
   A. Farneth, D. C. Fuls, A. R. Gibbs, A. D. Grauer, H. Groeller, J. A.
   Johnson, R. A. Kowalski, S. M. Larson, G. J. Leonard, D. Rankin, R. L.
   Seaman, F. C. Shelly. 1.0-m reflector + CCD.
(K87) Dettelbach Vineyard Observatory  (N49.807693 E10.170110)  Germany.
(L01) Višnjan Observatory, Tičan  (N45.290900 E13.749300)  Croatia.
   Observers K. Korlević, E. Pettarin. Measurer E. Pettarin. 1.0-m f/2.9
   reflector + CCD.

Orbital elements:  C15LW42
   Perihelion 2019 Nov 29.245353 +/- 0.673 TT =  5:53:18 (JD 2458816.745353)
Epoch 2019 Oct 16.0 TT = JDT 2458772.5   Earth MOID: 0.8901   AutoNEOCP
M 352.28749929 +/- 0.20             (J2000 ecliptic)
n   0.17431210 +/- 0.00269          Peri.   45.38518 +/- 0.34
a   3.17383499 +/- 0.0326           Node    26.86383 +/- 0.08
e   0.4313511 +/- 0.00482           Incl.   27.62077 +/- 0.08
P   5.65                   H 17.2   G  0.15   U  8.8  
q 1.80479766 +/- 0.00332    Q 4.54287233 +/- 0.0628
From 27 observations 2019 Oct. 10-16; mean residual 0".52
Residuals in arcseconds: 
191010 G96  .02-  .09+    191011 I52  .71-  1.2-    191012 L01  .12+  .40-    
191010 G96  .09+  .12+    191011 I52  1.4-  .57-    191012 K87  .67+  .63+    
191010 G96  .03-  .16+    191011 I52  .46-  .89-    191012 K87  .90+  .65+    
191010 G96  .09+  .10+    191011 595  .64-  .00     191012 K87  .90+  .78+    
191010 I52  .37+  .01-    191011 595  1.3-  .77+    191016 L01  .38+  .33+    
191010 I52  .18+  .21+    191012 L01  .37+  .97-    191016 L01  .03-  .37+    
191010 I52  .20+  .13+    191012 L01  .32+  .51-    191016 L01  .32-  .19-    
191010 I52  .20+  .26+    191012 L01  .06+  .26-    191016 L01  .40-  .48-    
191011 I52  .13+  .21-    191012 L01  .11+  .24-    191016 L01  .20+  .07-    

Ephemerides (geocentric):
Date (UTC) HH   RA              Dec         delta   r     elong  mag " sig PA
---- -- -- --  -------------   -----------  ------ ------ -----  --- ---- ---
2019 10 17 00  04 41 15.622   +41 48 56.93  1.0694 1.8408 125.9 19.9 .122 104
2019 10 17 01  04 41 16.486   +41 50 11.49  1.0691 1.8407 126.0 19.9 .132 104
2019 10 17 02  04 41 17.345   +41 51 26.07  1.0688 1.8407 126.0 19.9 .142 104
2019 10 17 03  04 41 18.199   +41 52 40.67  1.0684 1.8406 126.0 19.9 .153 104
2019 10 17 04  04 41 19.049   +41 53 55.29  1.0681 1.8405 126.1 19.9 .163 104
2019 10 17 05  04 41 19.894   +41 55 09.92  1.0678 1.8405 126.1 19.9 .173 104
2019 10 17 06  04 41 20.735   +41 56 24.56  1.0675 1.8404 126.1 19.9 .184 103
2019 10 17 07  04 41 21.571   +41 57 39.23  1.0672 1.8403 126.1 19.9 .195 103
2019 10 17 08  04 41 22.403   +41 58 53.91  1.0669 1.8403 126.2 19.9 .206 103
2019 10 17 09  04 41 23.230   +42 00 08.61  1.0666 1.8402 126.2 19.9 .217 103
2019 10 17 10  04 41 24.053   +42 01 23.32  1.0663 1.8401 126.2 19.9 .228 103
2019 10 17 11  04 41 24.870   +42 02 38.05  1.0660 1.8401 126.2 19.9 .240 103
2019 10 17 12  04 41 25.684   +42 03 52.79  1.0657 1.8400 126.3 19.9 .251 103
2019 10 17 13  04 41 26.493   +42 05 07.55  1.0654 1.8399 126.3 19.9 .263 103
2019 10 17 14  04 41 27.297   +42 06 22.33  1.0651 1.8399 126.3 19.9 .275 103
2019 10 17 15  04 41 28.096   +42 07 37.12  1.0647 1.8398 126.3 19.9 .287 103
2019 10 17 16  04 41 28.891   +42 08 51.93  1.0644 1.8397 126.4 19.9 .299 103
2019 10 17 17  04 41 29.682   +42 10 06.76  1.0641 1.8397 126.4 19.9 .311 103
2019 10 17 18  04 41 30.467   +42 11 21.60  1.0638 1.8396 126.4 19.9 .323 103
2019 10 17 19  04 41 31.248   +42 12 36.46  1.0635 1.8395 126.5 19.9 .336 103
2019 10 17 20  04 41 32.025   +42 13 51.33  1.0632 1.8395 126.5 19.9 .348 103
2019 10 17 21  04 41 32.797   +42 15 06.22  1.0629 1.8394 126.5 19.9 .361 103
2019 10 17 22  04 41 33.564   +42 16 21.12  1.0626 1.8393 126.5 19.9 .374 102
2019 10 17 23  04 41 34.326   +42 17 36.04  1.0623 1.8393 126.6 19.9 .387 102
2019 10 18 00  04 41 35.084   +42 18 50.97  1.0620 1.8392 126.6 19.9 .400 102
2019 10 18 01  04 41 35.837   +42 20 05.92  1.0617 1.8391 126.6 19.9 .413 102
2019 10 18 02  04 41 36.586   +42 21 20.89  1.0614 1.8391 126.6 19.9 .427 102
2019 10 18 03  04 41 37.330   +42 22 35.87  1.0611 1.8390 126.7 19.9 .440 102
2019 10 18 04  04 41 38.069   +42 23 50.86  1.0608 1.8389 126.7 19.9 .454 102
2019 10 18 05  04 41 38.803   +42 25 05.87  1.0605 1.8389 126.7 19.9 .468 102
2019 10 18 06  04 41 39.533   +42 26 20.90  1.0602 1.8388 126.8 19.9 .482 102
2019 10 18 07  04 41 40.258   +42 27 35.94  1.0599 1.8387 126.8 19.9 .496 102
2019 10 18 08  04 41 40.978   +42 28 51.00  1.0596 1.8387 126.8 19.9 .511 102
2019 10 18 09  04 41 41.694   +42 30 06.07  1.0593 1.8386 126.8 19.9 .525 102
2019 10 18 10  04 41 42.405   +42 31 21.16  1.0590 1.8385 126.9 19.9 .540 102
2019 10 18 11  04 41 43.111   +42 32 36.26  1.0587 1.8385 126.9 19.9 .554 102
2019 10 18 12  04 41 43.812   +42 33 51.37  1.0584 1.8384 126.9 19.9 .569 102
2019 10 18 13  04 41 44.509   +42 35 06.50  1.0581 1.8383 126.9 19.9 .584 102
2019 10 18 14  04 41 45.201   +42 36 21.65  1.0578 1.8383 127.0 19.9 .599 102
2019 10 18 15  04 41 45.888   +42 37 36.81  1.0575 1.8382 127.0 19.9 .615 102
2019 10 18 16  04 41 46.571   +42 38 51.98  1.0572 1.8381 127.0 19.9 .630 102
2019 10 18 17  04 41 47.248   +42 40 07.17  1.0569 1.8381 127.0 19.9 .646 102
2019 10 18 18  04 41 47.921   +42 41 22.38  1.0566 1.8380 127.1 19.9 .661 102
2019 10 18 19  04 41 48.589   +42 42 37.59  1.0563 1.8379 127.1 19.9 .677 102
2019 10 18 20  04 41 49.253   +42 43 52.83  1.0560 1.8379 127.1 19.9 .693 102
2019 10 18 21  04 41 49.911   +42 45 08.07  1.0557 1.8378 127.2 19.9 .709 102
2019 10 18 22  04 41 50.565   +42 46 23.33  1.0554 1.8377 127.2 19.9 .725 102
2019 10 18 23  04 41 51.214   +42 47 38.61  1.0551 1.8377 127.2 19.9 .742 102